Stations météo

réclame
Mon MeteoGroup
Ahaus, Allemagne (10309): Température de l'air & dewpoint: 19.02.2018 00:00:00 - 25.02.2018 00:00:00 (CET)Ahaus, Allemagne (10309): Température de l'air 5cm & Température de l'air -5cm: 19.02.2018 00:00:00 - 25.02.2018 00:00:00 (CET)Ahaus, Allemagne (10309): Température de l'air -20cm & Température de l'air -100cm: 19.02.2018 00:00:00 - 25.02.2018 00:00:00 (CET)Ahaus, Allemagne (10309): Vitesse du vent & gusts: 19.02.2018 00:00:00 - 25.02.2018 00:00:00 (CET)Ahaus, Allemagne (10309): Direction du vent: 19.02.2018 00:00:00 - 25.02.2018 00:00:00 (CET)Ahaus, Allemagne (10309): reduced air pressure: 19.02.2018 00:00:00 - 25.02.2018 00:00:00 (CET)Ahaus, Allemagne (10309): visibility: 19.02.2018 00:00:00 - 25.02.2018 00:00:00 (CET)Ahaus, Allemagne (10309): Ensoleillement: 19.02.2018 00:00:00 - 25.02.2018 00:00:00 (CET)Ahaus, Allemagne (10309): Quantités de précipitations: 19.02.2018 00:00:00 - 25.02.2018 00:00:00 (CET)
Date & Time tt [°C] td [°C] tt 5cm [°C] tt -5cm [°C] tt -20cm [°C] tt -100cm [°C] ff [km/h] ff [knt] fx [km/h] fx [knt] dd ppp [hPa] vv [km] sd [min] rr [mm]
25.02.2018 00:00:00 -2,2 -9,3 -3,7 0,0 0,7 4,4 19 10 35 19 ENE 1030,1 60 0 0,0
24.02.2018 23:00:00 -1,8 -9,0 -3,3 0,0 0,7 4,4 18 10 35 19 ENE 1029,8 60 0 0,0
24.02.2018 22:00:00 -1,4 -9,1 -2,9 0,0 0,7 4,4 20 11 34 18 E 1029,4 65 0 0,0
24.02.2018 21:00:00 -1,2 -8,4 -2,8 0,0 0,7 4,4 21 11 37 20 ENE 1029,2 48 0 0,0
24.02.2018 20:00:00 -0,7 -8,2 -2,4 0,0 0,7 4,4 19 11 40 22 ENE 1028,8 45 0 0,0
24.02.2018 19:00:00 -0,1 -8,1 -1,6 0,0 0,7 4,4 20 11 40 22 ENE 1028,4 50 0 0,0
24.02.2018 18:00:00 0,8 -7,5 -0,5 0,0 0,7 4,4 24 13 40 22 ENE 1027,9 39 37 0,0
24.02.2018 17:00:00 1,1 -6,9 1,5 0,0 0,7 4,4 21 12 41 22 E 1027,8 24 56 0,0
24.02.2018 16:00:00 1,1 -7,0 1,7 -0,1 0,7 4,4 26 14 43 23 ENE 1027,9 17 60 0,0
24.02.2018 15:00:00 1,5 -5,6 3,3 -0,1 0,7 4,4 23 12 45 24 E 1027,9 24 45 0,0
24.02.2018 14:00:00 1,8 -4,9 4,4 -0,1 0,7 4,4 30 16 51 28 ENE 1027,9 11 57 0,0
24.02.2018 13:00:00 0,8 -5,8 1,6 -0,1 0,7 4,4 28 15 45 24 E 1028,2 22 54 0,0
24.02.2018 12:00:00 0,3 -7,0 2,4 -0,2 0,8 4,5 26 14 48 26 E 1028,5 10 60 0,0
24.02.2018 11:00:00 -0,7 -8,6 1,3 -0,3 0,8 4,5 21 12 41 22 E 1028,3 14 60 0,0
24.02.2018 10:00:00 -2,1 -9,7 0,0 -0,5 0,8 4,5 16 9 32 17 E 1028,1 13 60 0,0
24.02.2018 09:00:00 -3,2 -9,1 -2,4 -0,8 0,8 4,5 17 9 28 15 ENE 1027,6 15 51 0,0
24.02.2018 08:00:00 -4,1 -9,4 -5,3 -0,8 0,9 4,5 14 7 23 12 E 1027,3 13 0 0,0
24.02.2018 07:00:00 -4,1 -9,1 -5,6 -0,6 0,9 4,5 16 9 24 13 ENE 1026,7 13 0 0,0
24.02.2018 06:00:00 -3,9 -9,2 -5,3 -0,3 0,9 4,5 15 8 25 14 ENE 1026,3 14 0 0,0
24.02.2018 05:00:00 -3,7 -9,1 -5,3 -0,1 1,0 4,5 16 9 30 16 ENE 1025,8 14 0 0,0
24.02.2018 04:00:00 -3,0 -9,6 -4,3 0,0 1,0 4,5 21 11 36 20 ENE 1025,2 16 0 0,0
24.02.2018 03:00:00 -3,0 -9,2 -4,5 0,1 1,0 4,5 18 10 30 16 ENE 1025,2 16 0 0,0
24.02.2018 02:00:00 -2,7 -9,5 -4,2 0,2 1,0 4,5 12 7 35 19 E 1025,2 18 0 0,0
24.02.2018 01:00:00 -2,4 -9,4 -4,0 0,2 1,1 4,5 21 11 33 18 ENE 1025,0 17 0 0,0
24.02.2018 00:00:00 -2,2 -8,7 -3,7 0,2 1,1 4,5 20 11 29 16 ENE 1025,0 18 0 0,0
23.02.2018 23:00:00 -1,9 -7,5 -3,5 0,3 1,1 4,5 16 9 29 16 ENE 1024,6 15 0 0,0
23.02.2018 22:00:00 -1,8 -6,6 -3,5 0,3 1,1 4,5 17 9 28 15 ENE 1024,4 13 0 0,0
23.02.2018 21:00:00 -1,4 -6,5 -3,0 0,3 1,1 4,5 18 10 35 19 ENE 1024,2 13 0 0,0
23.02.2018 20:00:00 -0,8 -6,5 -2,3 0,4 1,2 4,5 19 10 29 16 ENE 1023,9 17 0 0,0
23.02.2018 19:00:00 -0,6 -6,2 -2,5 0,5 1,2 4,5 16 8 33 18 ENE 1023,6 19 0 0,0
23.02.2018 18:00:00 0,6 -7,0 -0,8 0,6 1,2 4,5 25 13 38 20 ENE 1023,1 26 37 0,0
23.02.2018 17:00:00 1,6 -6,6 2,0 1,3 1,1 4,5 21 11 34 18 ENE 1023,1 20 60 0,0
23.02.2018 16:00:00 2,1 -6,7 3,5 1,5 1,0 4,5 23 12 43 23 ENE 1023,2 17 60 0,0
23.02.2018 15:00:00 2,1 -5,9 4,7 0,2 1,0 4,5 23 12 40 22 ENE 1023,6 12 60 0,0
23.02.2018 14:00:00 1,9 -6,2 4,6 0,2 1,0 4,5 23 12 36 20 ENE 1023,9 13 60 0,0
23.02.2018 13:00:00 1,6 -6,5 4,4 0,2 1,0 4,5 24 13 38 20 ENE 1024,2 14 58 0,0
23.02.2018 12:00:00 0,9 -5,8 3,6 0,2 1,0 4,5 18 10 35 19 E 1024,7 14 25 0,0
23.02.2018 11:00:00 -0,3 -5,8 0,2 0,2 1,0 4,5 15 8 37 20 E 1025,2 13 27 0,0
23.02.2018 10:00:00 0,0 -5,5 1,3 0,2 1,0 4,5 17 9 31 17 E 1025,1 17 60 0,0
23.02.2018 09:00:00 -1,2 -3,5 -1,4 0,2 1,0 4,5 16 9 27 14 ENE 1024,7 5 49 0,0
23.02.2018 08:00:00 -1,9 -3,3 -3,6 0,2 1,0 4,5 10 5 19 11 NE 1024,4 4,0 0 0,0
23.02.2018 07:00:00 -1,6 -3,1 -3,3 0,2 1,1 4,5 10 6 18 10 NE 1024,1 3,5 0 0,0
23.02.2018 06:00:00 -1,0 -2,6 -2,1 0,2 1,1 4,6 13 7 21 12 NE 1023,9 3,6 0 0,0
23.02.2018 05:00:00 -1,0 -2,4 -1,6 0,2 1,1 4,6 11 6 19 10 NE 1023,8 3,2 0 0,0
23.02.2018 04:00:00 -1,2 -2,6 -1,9 0,2 1,1 4,6 9 5 19 11 NE 1024,0 2,9 0 0,0
23.02.2018 03:00:00 -1,5 -2,8 -3,1 0,2 1,1 4,6 10 6 17 9 NNE 1024,4 3,2 0 0,0
23.02.2018 02:00:00 -1,6 -3,0 -2,1 0,3 1,1 4,6 10 5 17 9 NNE 1024,5 3,4 0 0,0
23.02.2018 01:00:00 -2,0 -3,4 -3,9 0,3 1,2 4,6 10 5 15 8 NNE 1024,7 3,7 0 0,0
23.02.2018 00:00:00 -1,4 -3,1 -3,6 0,3 1,2 4,6 9 5 16 9 NE 1024,8 4,1 0 0,0
22.02.2018 23:00:00 -0,7 -2,9 -3,0 0,3 1,2 4,6 11 6 19 11 NE 1025,0 5 0 0,0
22.02.2018 22:00:00 -0,6 -3,4 -2,5 0,4 1,2 4,6 13 7 19 11 ENE 1024,7 7 0 0,0
22.02.2018 21:00:00 -0,4 -4,0 -2,9 0,4 1,3 4,6 10 6 16 9 NE 1024,8 13 0 0,0
22.02.2018 20:00:00 0,1 -4,4 -2,9 0,4 1,3 4,6 9 5 19 11 NE 1025,0 14 0 0,0
22.02.2018 19:00:00 0,8 -4,8 -1,5 0,5 1,3 4,6 12 7 26 14 NE 1024,7 17 0 0,0
22.02.2018 18:00:00 1,6 -4,5 -0,8 0,8 1,3 4,6 14 7 30 16 NE 1024,5 17 25 0,0
22.02.2018 17:00:00 2,8 -5,4 3,0 1,7 1,2 4,6 19 10 31 17 NE 1024,4 16 60 0,0
22.02.2018 16:00:00 3,1 -4,1 4,3 1,7 1,1 4,6 21 11 32 17 NE 1024,3 13 60 0,0
22.02.2018 15:00:00 3,4 -3,8 6,5 0,2 1,1 4,6 15 8 31 17 NE 1024,7 20 59 0,0
22.02.2018 14:00:00 2,9 -4,0 5,8 0,2 1,1 4,6 19 10 32 18 NE 1025,5 13 56 0,0
22.02.2018 13:00:00 2,6 -3,7 6,4 0,2 1,1 4,6 18 10 32 18 NE 1025,8 17 28 0,0
22.02.2018 12:00:00 1,7 -4,2 2,8 0,2 1,1 4,6 19 10 28 15 NE 1026,1 15 27 0,0
22.02.2018 11:00:00 1,0 -2,9 4,1 0,1 1,1 4,6 14 8 23 12 ENE 1026,3 11 60 0,0
22.02.2018 10:00:00 -0,2 -3,7 2,4 0,1 1,1 4,6 9 5 18 10 NE 1026,6 10 60 0,0
22.02.2018 09:00:00 -1,8 -4,6 -0,8 0,1 1,2 4,6 7 4 14 8 NE 1026,4 8 49 0,0
22.02.2018 08:00:00 -2,9 -5,2 -5,2 0,2 1,2 4,6 8 4 16 9 NE 1026,2 8 0 0,0
22.02.2018 07:00:00 -3,0 -5,3 -5,8 0,2 1,2 4,6 9 5 16 8 NE 1025,9 9 0 0,0
22.02.2018 06:00:00 -2,2 -5,1 -4,2 0,2 1,2 4,6 11 6 18 10 ENE 1025,9 10 0 0,0
22.02.2018 05:00:00 -2,0 -5,1 -4,1 0,3 1,3 4,6 11 6 18 10 NE 1025,6 10 0 0,0
22.02.2018 04:00:00 -2,2 -5,1 -4,9 0,3 1,3 4,6 9 5 16 8 NE 1025,7 9 0 0,0
22.02.2018 03:00:00 -1,7 -5,1 -4,2 0,3 1,3 4,6 10 5 16 8 NE 1025,9 9 0 0,0
22.02.2018 02:00:00 -2,1 -5,1 -4,9 0,3 1,4 4,6 8 5 12 7 NE 1026,1 8 0 0,0
22.02.2018 01:00:00 -1,5 -5,0 -4,1 0,4 1,4 4,6 9 5 15 8 NE 1026,2 9 0 0,0
22.02.2018 00:00:00 -1,5 -4,8 -4,0 0,4 1,5 4,6 10 5 14 8 NE 1026,3 8 0 0,0
21.02.2018 23:00:00 -1,4 -4,5 -4,6 0,5 1,5 4,6 8 4 15 8 NE 1026,4 8 0 0,0
21.02.2018 22:00:00 -0,7 -4,6 -3,4 0,5 1,6 4,6 9 5 15 8 NE 1026,2 9 0 0,0
21.02.2018 21:00:00 0,1 -4,2 -2,5 0,6 1,7 4,7 10 6 17 9 NE 1026,0 8 0 0,0
21.02.2018 20:00:00 0,5 -4,1 -2,1 0,7 1,7 4,7 9 5 16 9 NE 1025,8 9 0 0,0
21.02.2018 19:00:00 1,0 -4,0 -1,6 0,9 1,8 4,7 9 5 21 11 NNE 1025,6 9 0 0,0
21.02.2018 18:00:00 2,3 -4,4 0,7 2,0 1,7 4,7 16 9 31 17 NE 1025,2 10 22 0,0
21.02.2018 17:00:00 2,9 -4,0 3,5 2,7 1,5 4,7 13 7 23 12 NE 1024,9 9 60 0,0
21.02.2018 16:00:00 3,3 -4,1 4,7 2,9 1,3 4,7 15 8 25 14 NE 1025,2 10 60 0,0
21.02.2018 15:00:00 3,4 -3,9 6,4 2,0 1,2 4,7 14 7 24 13 NE 1025,6 10 60 0,0
21.02.2018 14:00:00 3,2 -4,2 7,0 0,2 1,2 4,7 14 8 21 11 ENE 1026,1 10 60 0,0
21.02.2018 13:00:00 2,8 -4,0 6,4 0,2 1,2 4,7 14 8 21 11 ENE 1026,4 9 60 0,0
21.02.2018 12:00:00 1,8 -3,3 5,8 0,2 1,2 4,7 10 6 18 10 NE 1026,7 7 60 0,0
21.02.2018 11:00:00 0,3 -3,1 3,3 0,2 1,2 4,7 8 5 12 6 NNE 1026,7 4,9 60 0,0
21.02.2018 10:00:00 -1,3 -3,6 0,2 0,2 1,3 4,7 6 4 10 6 NE 1026,5 3,2 60 0,0
21.02.2018 09:00:00 -2,9 -4,4 -2,8 0,2 1,3 4,7 6 3 8 5 N 1026,3 2,3 28 0,0
21.02.2018 08:00:00 -3,3 -4,5 -5,5 0,2 1,3 4,7 6 4 11 6 NNE 1026,1 2,5 0 0,0
21.02.2018 07:00:00 -3,4 -4,7 -5,4 0,3 1,4 4,7 8 5 11 6 NNE 1026,1 2,5 0 0,0
21.02.2018 06:00:00 -3,0 -4,1 -6,7 0,3 1,4 4,7 5 3 9 5 NE 1025,6 2,9 0 0,0
21.02.2018 05:00:00 -2,6 -4,3 -5,1 0,3 1,4 4,7 7 4 15 8 NE 1025,5 3,1 0 0,0
21.02.2018 04:00:00 -2,5 -4,4 -4,3 0,4 1,5 4,7 9 5 15 8 NNE 1025,6 3,4 0 0,0
21.02.2018 03:00:00 -2,6 -4,4 -5,6 0,4 1,5 4,7 8 4 11 6 N 1025,2 3,1 0 0,0
21.02.2018 02:00:00 -2,2 -4,2 -5,2 0,4 1,6 4,7 8 4 13 7 NNE 1024,9 3,8 0 0,0
21.02.2018 01:00:00 -1,6 -4,1 -4,2 0,5 1,6 4,7 8 5 13 7 NNE 1024,6 4,3 0 0,0
21.02.2018 00:00:00 -0,9 -3,7 -4,1 0,5 1,7 4,7 8 4 18 10 NE 1024,0 4,7 0 0,0
20.02.2018 23:00:00 -0,1 -3,7 -2,4 0,6 1,8 4,7 11 6 16 9 NNE 1023,6 5 0 0,0
20.02.2018 22:00:00 0,1 -3,6 -1,8 0,6 1,9 4,7 10 6 14 8 N 1023,0 6 0 0,0
20.02.2018 21:00:00 0,6 -3,2 -2,9 0,7 2,0 4,7 8 4 13 7 N 1022,4 6 0 0,0
20.02.2018 20:00:00 0,9 -3,0 -3,8 0,9 2,1 4,7 6 3 20 11 NE 1021,8 7 0 0,0
20.02.2018 19:00:00 1,8 -3,0 -1,1 1,3 2,2 4,7 11 6 22 12 ENE 1021,2 8 0 0,0
20.02.2018 18:00:00 2,9 -2,6 0,1 2,3 2,1 4,7 11 6 19 10 NE 1020,5 9 18 0,0
20.02.2018 17:00:00 3,8 -2,3 4,1 3,1 2,0 4,7 9 5 22 12 NE 1019,8 8 50 0,0
20.02.2018 16:00:00 4,0 -1,9 4,4 3,6 1,7 4,7 16 8 26 14 NE 1019,7 8 1 0,0
20.02.2018 15:00:00 4,5 -2,5 5,7 3,5 1,5 4,7 13 7 21 11 NE 1019,4 10 0 0,0
20.02.2018 14:00:00 4,5 -2,0 5,9 2,5 1,3 4,7 11 6 17 9 NE 1019,6 8 8 0,0
20.02.2018 13:00:00 4,0 -2,0 5,0 0,4 1,3 4,7 10 6 17 9 ENE 1019,6 8 25 0,0
20.02.2018 12:00:00 3,8 -1,8 6,0 0,3 1,3 4,7 10 5 16 8 ENE 1019,7 8 60 0,0
20.02.2018 11:00:00 2,1 -1,7 4,5 0,3 1,4 4,7 9 5 15 8 ENE 1019,3 5 60 0,0
20.02.2018 10:00:00 -0,1 -2,3 1,4 0,3 1,4 4,7 8 4 13 7 ENE 1019,4 3,4 60 0,0
20.02.2018 09:00:00 -2,6 -3,3 -2,2 0,3 1,4 4,7 4 2 7 4 NW 1019,5 2,2 45 0,0
20.02.2018 08:00:00 -3,9 -4,2 -6,1 0,3 1,5 4,7 6 3 8 4 ENE 1019,2 1,6 0 0,0
20.02.2018 07:00:00 -3,7 -4,0 -6,5 0,4 1,5 4,7 5 3 9 5 N 1019,1 1,7 0 0,0
20.02.2018 06:00:00 -2,9 -3,6 -5,0 0,4 1,6 4,7 7 4 19 10 NNE 1019,0 2,2 0 0,0
20.02.2018 05:00:00 -3,1 -3,6 -6,4 0,4 1,6 4,7 4 2 6 3 ENE 1018,5 2,2 0 0,0
20.02.2018 04:00:00 -3,2 -3,7 -6,7 0,5 1,7 4,7 4 2 10 5 ENE 1018,6 2,3 0 0,0
20.02.2018 03:00:00 -3,2 -3,8 -6,1 0,5 1,8 4,7 6 3 8 4 N 1018,7 2,4 0 0,0
20.02.2018 02:00:00 -2,7 -3,0 -5,5 0,6 1,8 4,7 4 2 5 3 N 1018,6 2,5 0 0,0
20.02.2018 01:00:00 -2,5 -3,0 -5,3 0,7 1,9 4,7 4 2 19 10 N 1018,8 2,5 0 0,0
20.02.2018 00:00:00 -2,2 -2,7 -5,0 0,7 2,0 4,7 3 2 5 3 NE 1018,6 3,1 0 0,0
19.02.2018 23:00:00 -1,2 -2,1 -4,6 0,9 2,2 4,7 4 2 4 2 NNW 1018,6 3,4 0 0,0
19.02.2018 22:00:00 -0,4 -2,3 -3,5 1,0 2,3 4,7 3 2 7 4 NNE 1018,8 4,9 0 0,0
19.02.2018 21:00:00 1,2 -1,7 -2,1 1,7 2,4 4,7 6 3 8 5 ENE 1018,9 6 0 0,0
19.02.2018 20:00:00 2,0 -1,5 -0,1 2,2 2,4 4,7 5 3 8 4 ENE 1018,8 6 0 0,0
19.02.2018 19:00:00 2,5 -1,5 0,6 2,7 2,4 4,7 5 3 8 5 E 1018,6 8 0 0,0
19.02.2018 18:00:00 3,2 -1,2 1,9 3,3 2,3 4,7 6 3 11 6 ENE 1018,6 8 0 0,0
19.02.2018 17:00:00 3,9 -1,5 3,5 3,7 2,1 4,8 4 2 9 5 SE 1018,4 9 0 0,0
19.02.2018 16:00:00 4,2 -2,4 4,4 4,1 1,8 4,8 6 3 12 6 SSE 1018,8 10 0 0,0
19.02.2018 15:00:00 4,4 -2,0 5,2 4,3 1,5 4,8 6 3 16 9 SE 1018,9 10 20 0,0
19.02.2018 14:00:00 4,0 -2,0 7,0 2,5 1,3 4,8 8 4 14 7 SE 1019,5 10 24 0,0
19.02.2018 13:00:00 3,2 -2,2 4,3 0,5 1,3 4,8 8 4 12 7 S 1020,2 9 1 0,0
19.02.2018 12:00:00 2,1 -2,6 2,8 0,3 1,3 4,8 10 5 16 9 S 1020,6 9 13 0,0
19.02.2018 11:00:00 1,5 -2,6 1,9 0,3 1,3 4,8 13 7 20 11 S 1020,9 8 0 0,0
19.02.2018 10:00:00 0,8 -2,4 0,7 0,3 1,3 4,8 13 7 21 11 S 1020,9 6 0 0,0
19.02.2018 09:00:00 0,4 -2,3 -0,1 0,3 1,3 4,8 10 6 21 11 S 1021,3 5 0 0,0
19.02.2018 08:00:00 0,2 -2,3 -0,5 0,4 1,4 4,8 10 5 16 9 S 1021,3 4,8 0 0,0
19.02.2018 07:00:00 0,2 -2,3 -0,7 0,4 1,4 4,8 9 5 14 8 S 1021,4 4,9 0 0,0
19.02.2018 06:00:00 0,4 -2,5 -0,8 0,4 1,4 4,8 9 5 16 8 S 1021,4 6 0 0,0
19.02.2018 05:00:00 0,7 -2,5 -1,0 0,4 1,5 4,8 9 5 14 7 S 1021,7 7 0 0,0
19.02.2018 04:00:00 0,6 -2,7 -1,6 0,4 1,5 4,8 9 5 12 7 S 1022,1 8 0 0,0
19.02.2018 03:00:00 0,5 -2,7 -2,6 0,4 1,5 4,8 6 3 13 7 S 1022,8 8 0 0,0
19.02.2018 02:00:00 0,7 -3,0 -3,0 0,5 1,6 4,8 6 3 12 7 S 1023,0 9 0 0,0
19.02.2018 01:00:00 0,8 -3,0 -3,4 0,5 1,7 4,8 5 3 10 5 S 1023,6 9 0 0,0
19.02.2018 00:00:00 0,1 -3,0 -4,3 0,6 1,7 4,8 8 4 12 6 SSE 1024,0 9 0 0,0

tt = Température de l'air
td = dewpoint
tt 5cm = Température de l'air 5cm
tt -5cm = Température de l'air -5cm
tt -20cm = Température de l'air -20cm
tt -100cm = Température de l'air -100cm
ff = Vitesse du vent
fx = gusts
dd = Direction du vent
ppp = reduced air pressure
vv = visibility
sd = Ensoleillement
rr = Quantités de précipitations

stations d'obs. à proximité